Regional Weather Roundup
Issued by NWS

Home | Current Version | Previous Version | Graphics & Text | Print | Product List | Glossary On
Versions: 1 2 3 4 5 6 7 8 9 10 11 12 13 14 15 16 17 18 19 20 21 22 23 24 25 26 27 28 29 30 31 32 33 34 35 36 37 38 39 40 41 42 43 44 45 46 47 48 49 50
540
ASUS43 KFSD 192210
RWRSD

WEATHER ROUNDUP FOR SOUTH DAKOTA
NATIONAL WEATHER SERVICE SIOUX FALLS SD
500 PM CDT THU OCT 19 2017

NOTE: "FAIR" INDICATES FEW OR NO CLOUDS BELOW 12,000 FEET WITH NO
SIGNIFICANT WEATHER AND/OR OBSTRUCTIONS TO VISIBILITY.


SDZ001>005-009-010-012>017-192300-
NORTHWEST AND NORTH CENTRAL SOUTH DAKOTA

CITY           SKY/WX    TMP DP  RH WIND       PRES   REMARKS
BUFFALO          N/A     81  25  12 SE7       29.68F
FAITH            N/A     79  25  13 S10       29.75S
MOBRIDGE       SUNNY     74  42  31 S15       29.73S
$$

SDZ012>016-024>037-041>051-057-063-072>074-192300-
SOUTHWEST AND SOUTH CENTRAL SOUTH DAKOTA

CITY           SKY/WX    TMP DP  RH WIND       PRES   REMARKS
RAPID CTY ARPT SUNNY     83  15   8 SW20      29.76R
PIERRE         SUNNY     83  32  16 S12       29.73F
CUSTER         SUNNY     71  14  11 SW10      29.92F
ELLSWORTH AFB  SUNNY     84  13   7 SW18      29.75S
PHILIP         SUNNY     85  24  11 SW8       29.74F
PINE RIDGE     SUNNY     84  19   9 S14G21    29.82F
SPEARFISH      FAIR      77  30  18 E8        29.80F
WINNER         FAIR      84  42  22 S16       29.80F
$$

SDZ004>011-016>023-039-040-192300-
NORTHEAST SOUTH DAKOTA

CITY           SKY/WX    TMP DP  RH WIND       PRES   REMARKS
ABERDEEN       SUNNY     75  44  33 S15G22    29.77F
WATERTOWN      SUNNY     71  48  43 S14       29.83S
BROOKINGS      SUNNY     72  50  45 S17G24    29.87F
SISSETON         N/A     76  45  33 S16G26    29.78F
$$

SDZ017-020-022-023-036>040-048>070-192300-
SOUTHEAST SOUTH DAKOTA

CITY           SKY/WX    TMP DP  RH WIND       PRES   REMARKS
SIOUX FALLS    MOSUNNY   74  52  46 S20       29.90F
HURON          SUNNY     77  45  32 S12       29.81F
CHAMBERLAIN    SUNNY     81  46  28 S15       29.80F
MITCHELL       SUNNY     78  43  28 S18G25    29.83F
YANKTON        SUNNY     77  50  38 SE20      29.90F
$$

ABBREVIATIONS USED IN REMARKS
   TC - TEMPERATURE IN CELSIUS
  WCI - WIND CHILL INDEX
   HX - HEAT INDEX
  VSB - VISIBILITY





USA.gov is the U.S. government's official web portal to all federal, state and local government web resources and services.